Flag for Canada Weather past 2 weeks in Richmond, British Columbia, Canada

Now
70 °F

Partly sunny.


Feels Like: 70 °F
Forecast: 64 / 81 °F
Wind: 8 mph from West

Location: Vancouver International Air-Port

Current Time: Jul 5, 2015 at 8:43:32 PM

Latest Report: Jul 5, 2015 at 8:00 PM


Visibility: 3 mi

Pressure: 29.80 "Hg

Humidity: 73%

Dew point: 61 °F

Location of RichmondLocation

Historic Weather in Richmond — Graph

°F

Richmond temperature yesterday

Maximum temperature yesterday: 75 °F (at 2:00 PM)
Minimum temperature yesterday: 63 °F (at 4:00 AM)
Average temperature yesterday: 69 °F

Past Weeks' High & Low Weather Summary

 TemperatureHumidityPressure
High81 °F (Jun 29, 12:00 PM)94% (Jun 25, 12:00 AM)30.15 "Hg (Jun 25, 12:00 AM)
Low54 °F (Jun 21, 5:00 AM)40% (Jun 23, 9:00 PM)29.75 "Hg (Jul 4, 7:00 PM)
Average69 °F68%29.98 "Hg
* Reported Jun 20 7:00 PM — Jul 5 7:00 PM, Richmond, Weather by CustomWeather, © 2015

Note: Actual official high and low records may vary slightly from our data, if they occured in-between our weather recording intervals... More about our weather records

Advertising

Richmond weather history for previous 24 hours

 ConditionsComfort  
Time TempWeatherWind HumidityBarometerVisibility
7:00 PM
Sun, Jul 5
73 °FPartly sunny.10 mph61%29.80 "Hg3 mi
6:00 PM75 °FPartly sunny.13 mph54%29.81 "Hg3 mi
5:00 PM75 °FPartly sunny.17 mph57%29.82 "Hg5 mi
4:00 PM77 °FScattered clouds.16 mph57%29.83 "Hg6 mi
3:00 PM77 °FScattered clouds.20 mph51%29.83 "Hg10 mi
2:00 PM77 °FScattered clouds.18 mph51%29.85 "Hg15 mi
1:00 PM75 °FScattered clouds.21 mph54%29.85 "Hg20 mi
12:00 PM73 °FPartly sunny.16 mph61%29.87 "Hg20 mi
11:00 AM70 °FMostly cloudy.16 mph69%29.87 "Hg20 mi
10:00 AM68 °FPartly sunny.10 mph69%29.88 "Hg20 mi
9:00 AM66 °FMostly cloudy.10 mph78%29.88 "Hg20 mi
8:00 AM64 °FMostly cloudy.7 mph83%29.87 "Hg20 mi
7:00 AM64 °FCloudy.7 mph83%29.86 "Hg20 mi
6:00 AM64 °FOvercast.9 mph78%29.85 "Hg15 mi
5:00 AM64 °FMostly cloudy.12 mph78%29.83 "Hg15 mi
4:00 AM64 °FPassing clouds.10 mph78%29.83 "Hg15 mi
3:00 AM64 °FPassing clouds.12 mph83%29.82 "Hg15 mi
2:00 AM63 °FClear.7 mph88%29.81 "Hg15 mi
1:00 AM61 °FPassing clouds.9 mph94%29.80 "Hg15 mi
12:00 AM64 °FPassing clouds.3 mph78%29.79 "Hg15 mi
11:00 PM
Sat, Jul 4
66 °FClear.5 mph78%29.78 "Hg20 mi
10:00 PM66 °FPassing clouds.6 mph73%29.77 "Hg20 mi
9:00 PM68 °FPassing clouds.6 mph69%29.75 "Hg20 mi
8:00 PM72 °FPartly sunny.5 mph57%29.75 "Hg20 mi
Weather by CustomWeather, © 2015

See weather overviewHow to use our weather pages